Location: Astronomy Club of Akron Observatory
(40.9700°N, 81.5606°W)
Time: 02:37:38
(UTC-04:00)

ISS - Pass Details

Date: 18 July 2018
Orbit: 402 x 408 km, 51.6° (Epoch: 16 July)

Event Time Altitude Azimuth Distance (km) Brightness Sun altitude
Exits shadow 02:33:05 - 303° (WNW) 2,208 0.1 -26.4°
Reaches altitude 10° 02:35:45 10° 331° (NNW) 1,468 -0.5 -26.3°
Maximum altitude 02:37:20 13° 0° (N) 1,306 -0.4 -26.2°
Drops below altitude 10° 02:38:57 10° 29° (NNE) 1,470 0.0 -26.1°
Sets 02:41:57 0° 59° (ENE) 2,331 0.7 -25.9°
